Location: Asheville, NC
(35.6000°N, 82.5500°W)
Time: 06:46:38
(UTC-05:00)

Vanguard 2 Rocket - Pass Details

Date: 11 December 2017
Orbit: 556 x 3326 km, 32.9° (Epoch: 17 January)

Event Time Altitude Azimuth Distance (km) Brightness Sun altitude
Rises 17:14:21 0° 190° (S) 4,401 11.0 -0.3°
Reaches altitude 10° 17:17:58 10° 173° (S) 3,843 10.4 -0.9°
Maximum altitude 17:25:14 21° 130° (SE) 3,808 9.9 -2.2°
Drops below altitude 10° 17:35:10 10° 90° (E) 5,483 10.3 -4.1°
Enters shadow 17:39:53 - 80° (E) 6,497 10.6 -4.9°
Sets 17:41:49 0° 77° (ENE) 6,918 - -5.3°
